Regional Weather Roundup
Issued by NWS

Home | Current Version | Previous Version | Text Only | Print | Product List | Glossary Off
Versions: 1 2 3 4 5 6 7 8 9 10 11 12 13 14 15 16 17 18 19 20 21 22 23 24 25 26 27 28 29 30 31 32 33 34 35 36 37 38 39 40 41 42 43 44 45 46 47 48 49 50

881
ASUS43 KFSD 251510
RWRSD

WEATHER ROUNDUP FOR SOUTH DAKOTA
NATIONAL WEATHER SERVICE SIOUX FALLS SD
1000 AM CDT TUE APR 25 2017

NOTE: "FAIR" INDICATES FEW OR NO CLOUDS BELOW 12,000 FEET WITH NO
SIGNIFICANT WEATHER AND/OR OBSTRUCTIONS TO VISIBILITY.


SDZ001>005-009-010-012>017-251600-
NORTHWEST AND NORTH CENTRAL SOUTH DAKOTA

CITY           SKY/WX    TMP DP  RH WIND       PRES   REMARKS
BUFFALO          N/A     29  27  92 NE17      29.72R WCI  17
FAITH            N/A     29  29 100 NE17      29.76R WCI  17
MOBRIDGE       CLOUDY    33  28  81 N20       29.75R WCI  21
$$

SDZ012>016-024>037-041>051-057-063-072>074-251600-
SOUTHWEST AND SOUTH CENTRAL SOUTH DAKOTA

CITY           SKY/WX    TMP DP  RH WIND       PRES   REMARKS
RAPID CTY ARPT LGT SNOW  30  28  92 N15       29.72R VSB 1   WCI  19
PIERRE         CLOUDY    34  30  85 NE15      29.74R WCI  24
CUSTER         LGT SNOW  25  22  88 NE14      29.60R FOG     WCI  13
ELLSWORTH AFB  LGT SNOW  30  30 100 NE10      29.72  FOG     WCI  21
PHILIP         CLOUDY    34  31  88 NE17      29.73R WCI  23
PINE RIDGE     LGT SNOW  34  33  96 NE14      29.65R FOG     WCI  25
SPEARFISH      SNOW      28  28 100 NE12      29.72R VSB<1/4 WCI  18
WINNER         LGT RAIN  36  34  92 N17       29.69S
$$

SDZ004>011-016>023-039-040-251600-
NORTHEAST SOUTH DAKOTA

CITY           SKY/WX    TMP DP  RH WIND       PRES   REMARKS
ABERDEEN       CLOUDY    33  28  81 N21G26    29.73R WCI  21
WATERTOWN      CLOUDY    34  33  96 N16       29.63R WCI  24
BROOKINGS      CLOUDY    36  34  92 N14       29.64R
SISSETON         N/A     34  33  96 N24G31    29.67R WCI  21
$$

SDZ017-020-022-023-036>040-048>070-251600-
SOUTHEAST SOUTH DAKOTA

CITY           SKY/WX    TMP DP  RH WIND       PRES   REMARKS
SIOUX FALLS    CLOUDY    41  38  89 N9        29.63F
HURON          CLOUDY    36  33  89 N17       29.69S
CHAMBERLAIN    CLOUDY    36  33  88 N12G17    29.71R
MITCHELL       CLOUDY    38  34  85 N14       29.70R
YANKTON        CLOUDY    39  36  87 NW21      29.61F
$$

ABBREVIATIONS USED IN REMARKS
   TC - TEMPERATURE IN CELSIUS
  WCI - WIND CHILL INDEX
   HX - HEAT INDEX
  VSB - VISIBILITY





USA.gov is the U.S. government's official web portal to all federal, state and local government web resources and services.